Ketchikan, AK

5:33 PM AKST on December 12, 2018 (GMT -0900)
Ketchikan International

Weather History for PAKT - October, 2018

Change the Weather History Date:

Saturday, October 6, 2018

  Actual Average Record
Temperature  
Mean Temperature 50 °F -  
Max Temperature 53 °F 54 °F 69 °F (1964)
Min Temperature 46 °F 44 °F 32 °F (1970)
Degree Days  
Heating Degree Days 16    
Moisture  
Dew Point 47 °F    
Average Humidity 91    
Maximum Humidity 94    
Minimum Humidity 82    
Precipitation  
Precipitation 0.20 in - - ()
Sea Level Pressure  
Sea Level Pressure 30.04 in    
Wind  
Wind Speed 6 mph (SSE)    
Max Wind Speed 9 mph    
Max Gust Speed -    
Visibility 7 miles    
Events Rain    
Averages and records for this station are not official NWS values.
T = Trace of Precipitation, MM = Missing Value Source: NWS Daily Summary

Daily Weather History Graph

Daily Weather History Graph

Search for Another Location

Airport or City:

Astronomy

Oct. 06, 2018 Rise Set
Actual Time 6:59 AM AKDT 6:09 PM AKDT
Civil Twilight 6:23 AM AKDT 6:45 PM AKDT
Nautical Twilight 5:40 AM AKDT 7:27 PM AKDT
Astronomical Twilight 4:57 AM AKDT 8:11 PM AKDT
Moon 3:18 AM AKDT (10/6) 5:48 PM AKDT (10/6)
Length of Visible Light 12h 22m
Length of Day
11h 09m
Waning Crescent, 7% of the Moon is Illuminated
Oct 6
Waning Crescent
Oct 8
New
Oct 16
First Quarter
Oct 24
Full
Oct 31
Last Quarter

Hourly Weather History & Observations

Time (AKDT) Temp. Dew Point Humidity Pressure Visibility Wind Dir Wind Speed Gust Speed Precip Events Conditions
12:16 AM 46.9 °F 45.0 °F 93% 30.05 in 4.0 mi SE 9.2 mph - 0.01 in Rain Light Rain
12:34 AM 48.0 °F 46.0 °F 93% 30.06 in 4.0 mi SE 8.1 mph - 0.02 in Rain Light Rain
12:53 AM 48.0 °F 46.0 °F 93% 30.06 in 3.0 mi SE 9.2 mph - 0.03 in Rain Light Rain
1:03 AM 48.0 °F 46.0 °F 93% 30.06 in 2.5 mi SSE 6.9 mph - 0.01 in Rain Light Rain
1:21 AM 48.0 °F 46.0 °F 93% 30.06 in 3.0 mi SSE 9.2 mph - 0.02 in Rain Light Rain
1:53 AM 48.0 °F 46.0 °F 93% 30.07 in 4.0 mi SSE 6.9 mph - 0.03 in   Overcast
2:44 AM 48.0 °F 46.0 °F 93% 30.06 in 9.0 mi SSE 5.8 mph - N/A   Overcast
2:53 AM 48.0 °F 46.0 °F 93% 30.06 in 10.0 mi SSE 5.8 mph - N/A   Overcast
3:23 AM 48.0 °F 46.0 °F 93% 30.06 in 10.0 mi South 5.8 mph - N/A   Overcast
3:53 AM 48.0 °F 46.0 °F 93% 30.05 in 10.0 mi SSE 6.9 mph - N/A   Overcast
4:13 AM 48.0 °F 46.0 °F 93% 30.05 in 10.0 mi South 6.9 mph - N/A   Overcast
4:38 AM 48.0 °F 46.0 °F 93% 30.05 in 9.0 mi SSE 6.9 mph - 0.00 in   Overcast
4:53 AM 48.9 °F 46.0 °F 90% 30.06 in 7.0 mi South 5.8 mph - 0.00 in   Overcast
5:25 AM 48.0 °F 46.0 °F 93% 30.06 in 9.0 mi SSE 4.6 mph - N/A   Overcast
5:48 AM 48.2 °F 46.4 °F 93% 30.05 in 5.0 mi South 3.5 mph - N/A   Overcast
5:53 AM 48.0 °F 46.0 °F 93% 30.06 in 6.0 mi South 3.5 mph - N/A   Overcast
6:07 AM 48.2 °F 46.4 °F 93% 30.05 in 5.0 mi South 3.5 mph - N/A Rain Light Rain
6:53 AM 48.2 °F 46.4 °F 93% 30.05 in 5.0 mi Calm Calm - N/A   Overcast
7:53 AM 48.2 °F 46.4 °F 93% 30.06 in 8.0 mi Calm Calm - N/A   Overcast
8:53 AM 48.2 °F 46.4 °F 93% 30.05 in 10.0 mi Calm Calm - N/A   Overcast
9:53 AM 50.0 °F 48.2 °F 94% 30.05 in 10.0 mi Calm Calm - N/A   Overcast
10:53 AM 51.8 °F 48.2 °F 88% 30.06 in 10.0 mi South 4.6 mph - N/A   Overcast
11:53 AM 51.8 °F 48.2 °F 88% 30.07 in 10.0 mi SE 4.6 mph - N/A   Overcast
12:53 PM 52.0 °F 48.0 °F 86% 30.06 in 10.0 mi Calm Calm - N/A   Overcast
1:53 PM 53.6 °F 48.2 °F 82% 30.06 in 10.0 mi Calm Calm - N/A   Overcast
2:53 PM 53.6 °F 48.2 °F 82% 30.05 in 10.0 mi ESE 4.6 mph - N/A   Overcast
3:53 PM 53.6 °F 48.2 °F 82% 30.06 in 8.0 mi SE 4.6 mph - N/A   Overcast
4:53 PM 51.8 °F 48.2 °F 88% 30.05 in 10.0 mi SE 4.6 mph - N/A   Overcast
5:53 PM 51.8 °F 48.2 °F 88% 30.05 in 10.0 mi SSE 4.6 mph - N/A   Overcast
6:53 PM 51.8 °F 48.2 °F 88% 30.04 in 10.0 mi SE 6.9 mph - N/A   Overcast
7:53 PM 51.8 °F 48.2 °F 88% 30.03 in 10.0 mi SE 6.9 mph - N/A Rain Light Rain
8:53 PM 51.8 °F 48.2 °F 88% 30.01 in 10.0 mi SE 6.9 mph - N/A Rain Light Rain
9:13 PM 51.1 °F 48.9 °F 92% 30.01 in 8.0 mi SE 5.8 mph - 0.01 in Rain Light Rain
9:53 PM 51.1 °F 48.9 °F 92% 30.01 in 4.0 mi SSE 6.9 mph - 0.04 in Rain Light Rain
10:02 PM 51.1 °F 48.9 °F 92% 30.01 in 2.5 mi SE 8.1 mph - 0.01 in Rain Light Rain
10:12 PM 51.1 °F 48.9 °F 92% 30.01 in 3.0 mi SE 8.1 mph - 0.02 in Rain Light Rain
10:53 PM 51.1 °F 48.9 °F 92% 30.01 in 2.5 mi SSE 5.8 mph - 0.05 in Rain Light Rain
11:06 PM 51.1 °F 48.9 °F 92% 30.01 in 2.0 mi SSE 5.8 mph - 0.01 in Rain Light Rain
11:23 PM 51.1 °F 48.9 °F 92% 29.99 in 2.0 mi SSE 5.8 mph - 0.02 in Rain Light Rain
11:53 PM 51.1 °F 48.9 °F 92% 30.01 in 2.0 mi SSE 6.9 mph - 0.05 in Rain Light Rain